www.pogodaiklimat.ru

Погода и климат >> Архив погоды >> Гондурас >> Санта-Роза-де-Копан


ПОГОДА в Санта-Роза-де-Копане

  • Прогноз погоды в Санта-Роза-де-Копане
  • Монитор погоды в Санта-Роза-де-Копане

АРХИВ ПОГОДЫ в Санта-Роза-де-Копане

Время (UTC), дата Ветер
(напр.,м/с)
 
Видим.   Явления Облачность Т
(С)
Тd
(С)
f
(%)
Тe
(С)
Тes
(С)
Комфортность P
(гПа)
Po
(гПа)
Тmin
(С)
Tmax
(С)
R
(мм)
R24
(мм)
S
(см)
00 10.09 С 5 5000 м 9/5 600 м
[Cb cap As op Cs]
+24.0 +19.0 74 +31 +31 очень
душно
1011.1 894.0 +19.0 +30.7
12 10.09 штиль 0 4000 м дымка 9/9 240 м
[Sc Ci fib]
+20.0 +20.0 100 +23 +23 комфорт 1012.6 895.4 +20.0 +30.7 3
15 10.09 С 3 12 км мгла {туман} 9/4 600 м
[Sc diur, vesp Cs]
+22.6 +20.8 90 +30 +34 очень
душно
1013.5 896.2
18 10.09 С 2 16 км мгла {туман} 8/4 840 м
[Cu med, cong Cs]
+26.5 +22.5 79 +35 +46 очень
душно
1012.5 895.8 +20.0 +26.5
21 10.09 С 3 16 км мгла {туман} 9/8 840 м
[Cb cap Ac cuf Ci ing]
+26.5 +21.5 74 +34 +35 очень
душно
1011.0 894.3
00 11.09 С 1 12 км мгла {туман} 8/4 840 м
[Cb cap Ac cuf Cs]
+25.0 +21.3 80 +32 +32 очень
душно
1011.2 894.5 +20.0 +29.5
12 11.09 штиль 0 20 км 9/0 600 м
[Ac As Cs]
+18.8 +18.8 100 +20 +20 1013.4 896.0 +18.8 +29.5
15 11.09 СВ 2 15 км мгла {туман} 9/6 660 м
[Sc diur, vesp Ci fib]
+22.3 +20.9 92 +29 +32 очень
душно
1014.5 896.5
18 11.09 С 2 15 км мгла {туман} 9/6 900 м
[Cu med, cong Cs]
+26.6 +21.2 72 +34 +41 очень
душно
1013.5 895.5 +18.8 +26.6
21 11.09 СВ 3 18 км мгла {туман} 9/0 900 м
[Ac As Cs]
+27.4 +21.4 70 +35 +40 очень
душно
1010.3 894.0
00 12.09 С 3 15 км мгла {туман} 6/3 900 м
[Cb cap Cs]
+26.0 +21.2 75 +33 +33 очень
душно
1011.0 893.5 +18.8 +28.5
12 12.09 штиль 0 12 км дымка 8/6 660 м
[Sc Ac trans Ci fib]
+19.6 +19.6 100 +22 +22 комфорт 1010.3 893.7 +19.6 +28.5
15 12.09 СВ 2 15 км мгла {туман} 9/4 750 м
[Cb calv Ac und Cs]
+22.6 +20.5 88 +29 +32 очень
душно
1012.0 895.0
18 12.09 С 3 16 км мгла {туман} 8/5 840 м
[Cu med, cong Ac trans Ci fib]
+28.0 +20.6 64 +35 +41 очень
душно
1011.0 894.7 +19.6 +28.0
21 12.09 С 3 16 км мгла {туман} 5/0 900 м
[Ac As Cs]
+29.8 +21.1 60 +37 +43 очень
душно
1008.3 892.5
00 13.09 С 2 15 км мгла {туман} 8/3 900 м
[Cu med, cong Cs]
+25.2 +21.5 80 +32 +32 очень
душно
1009.5 893.0 +19.6 +30.0
12 13.09 штиль 0 15 км дымка {туман} 3/1 720 м
[Sc Ac trans Ci fib]
+18.6 +18.6 100 +20 +20 1011.3 894.2 +18.6 +30.0
15 13.09 В 2 16 км мгла {туман} 5/5 720 м
[Sc diur, vesp Ci fib]
+25.0 +22.3 85 +33 +38 очень
душно
1012.2 894.8
18 13.09 С 3 16 км мгла {туман} 8/4 900 м
[Cu med, cong Cs]
+27.5 +20.3 65 +34 +43 очень
душно
1011.5 894.5 +18.6 +27.5
21 13.09 С 3 15 км мгла {туман} 8/4 900 м
[Cu med, cong Ci fib]
+29.0 +21.4 64 +37 +41 очень
душно
1009.5 892.1
00 14.09 С 2 10 км мгла {туман} 5/3 900 м
[Cb cap Ac cuf Cs]
+25.5 +21.4 78 +32 +32 очень
душно
1011.0 892.7 +18.6 +29.4
12 14.09 штиль 0 4000 м дымка 8/8 240 м
[Sc]
+20.2 +20.2 100 +24 +24 комфорт 1010.9 894.2 +19.7 +29.4
18 14.09 С 3 10 км мгла {туман} 6/6 600 м
[Cu Sc Ac trans]
+25.0 +19.7 72 +31 +38 очень
душно
1011.0 894.9 +19.7 +28.0
21 14.09 С 3 10 км мгла {туман} 6/0 600 м
[Ac As Cs]
+29.5 +20.9 60 +37 +41 очень
душно
1010.0 894.0
00 15.09 С 4 15 км мгла {туман} 6/3 900 м
[Cb cap Ci ing]
+26.8 +22.8 79 +36 +36 очень
душно
1010.9 894.2 +19.7 +30.3
12 15.09 штиль 0 8000 м дымка 9/5 660 м
[Sc Ac trans Ci fib]
+20.3 +20.3 100 +24 +24 комфорт 1011.8 895.0 +20.3 +30.3
15 15.09 нст 2 12 км мгла {туман} 8/6 800 м
[Sc diur, vesp Ci fib]
+23.2 +21.4 90 +31 +35 очень
душно
1013.0 896.0
18 15.09 В 2 16 км мгла {туман} 9/6 840 м
[Cu med, cong Ci fib]
+27.5 +21.2 69 +35 +42 очень
душно
1011.5 895.0 +20.3 +27.5
21 15.09 С 2 16 км мгла {туман} 9/4 900 м
[Cu med, cong Cs]
+27.4 +21.4 70 +35 +40 очень
душно
1010.0 893.4
00 16.09 С 2 16 км мгла {туман} 9/3 900 м
[Cb cap Ac cuf Cs]
+25.0 +22.2 84 +32 +32 очень
душно
1010.2 893.6 +20.3 +30.0
12 16.09 штиль 0 10 км дымка 9/0 600 м
[Ac As]
+18.8 +18.8 100 +20 +20 1013.4 896.0 +18.8 +30.0 0.7
15 16.09 В 2 22 км мгла {туман} 9/3 660 м
[Sc diur, vesp Ac trans Cs]
+21.8 +20.7 93 +28 +32 душно 1014.5 896.5
18 16.09 СВ 3 15 км мгла {туман} 9/4 840 м
[Cu med, cong Cs]
+27.0 +21.0 70 +34 +43 очень
душно
1010.5 893.3 +18.8 +27.0
21 16.09 В 2 16 км мгла {туман} 9/6 840 м
[Cb cap Ac cuf Ci ing]
+29.4 +19.4 55 +35 +38 очень
душно
1009.9 894.0

 

Местоположение метеостанции Санта-Роза-де-Копан (Гондурас): широта 14.78 долгота -88.78 высота над уровнем моря 1079 м.

В архиве по умолчанию представлена погода в Санта-Роза-де-Копане за последнюю неделю. Архивные данные за месяц целиком и за предыдущие месяцы, начиная с января 2011 года, Вы можете получить, выбрав интересующий диапазон дат из раскрывающегося списка и нажав кнопку "Ввод!".


*Определитесь, кто Вы:
робот инопланетянин человек

Внимание! Время в таблицах - всемирное. Для получения местного времени необходимо прибавить поправку, которая равна -6 ч.

Смотрите также архив погоды в соседних городах и на ближайших метеорологических станциях:

Погода в Нуэва Окотепеке (Гондурас) (58 км)
Погода в Ла-Эсперансе (Гондурас) (84 км)
Погода в Пуэрто-Барриосе (Гватемала) (106 км)
Погода в Ла-Лиме (Гондурас) (118 км)
Погода в Теле (Гондурас) (174 км)
Погода в Йоро (Гондурас) (185 км)
Погода в Гватемале (Гватемала) (187 км)
Погода в Тегусигальпе (Гондурас) (188 км)
Погода в Амапале (Гондурас) (208 км)
Погода в Ла-Сейбе (Гондурас) (232 км)

Пояснения к столбцам:

Ветер - указаны скорость ветра в м/с - средняя за 10 мин, порывы в срок и между сроками (в фигурных скобках) и направление, откуда дует ветер: С - северный, СВ - северо-восточный, В - восточный, ЮВ - юго-восточный, Ю - южный, ЮЗ - юго-западный, З - западный, СЗ - северо-западный.
Видимость - горизонтальная дальность видимости в метрах или километрах. При видимости от 1 до 10 км при отсутствии осадков обычно наблюдается дымка, при ухудшении видимости до 1 км и менее - туман. В сухую погоду видимость может ухудшаться дымом, пылью или мглою.
Явления - указаны атмосферные явления, наблюдавшиеся в срок или в последний час перед сроком; фигурными скобками обозначены явления, наблюдавшиеся между сроками (за 1-3 часа до срока); квадратными скобками обозначены град или гололедные отложения с указанием их диаметра в мм.
Облачность - указаны через наклонную черту общая и нижняя облачность в баллах и высота нижней границы облаков в метрах; квадратными скобками обозначены формы облаков: Ci - перистые, Cs - перисто-слоистые, Cc - перисто-кучевые, Ac - высококучевые, As - высокослоистые, Sc - слоисто-кучевые, Ns - слоисто-дождевые, Cu - кучевые, Cb - кучево-дождевые. Подробнее классификацию облаков см. в Атласе облаков (PDF).
T - Температура воздуха - температура, измеренная на высоте 2 м над землей.
Td - Температура точки росы - температура, при понижении до которой содержащийся в воздухе водяной пар достигнет насыщения.
f - Относительная влажность воздуха - влажноcть воздуха, измеренная на высоте 2 м над землей.
Te - Эффективная температура - температура, которую ощущает одетый по сезону человек в тени. Характеристика душности погоды. При расчете учитывается влияние влажности воздуха и скорости ветра на теплоощущения человека.
Tes - Эффективная температура на солнце - температура, которую ощущает человек, с поправкой на солнечный нагрев. Характеристика знойности погоды. Зависит от высоты солнца над горизонтом, облачности и скорости ветра. Ночью, в пасмурную погоду, а также при ветре 12 м/с и более поправка равна нулю.
P - Атмосферное давление - приведенное к уровню моря атмосферное давление.
Po - Атмосферное давление - измеренное на уровне метеостанции атмосферное давление.
Tmin - Минимальная температура - минимум температуры воздуха на высоте 2 м над землей.
Tmax - Максимальная температура - максимум температуры воздуха на высоте 2 м над землей.
R - Количество осадков - Количество выпавших осадков за период времени, мм. При наведении курсора мыши на число - период времени, за который выпало указанное количество осадков.
R24 - Количество осадков - Количество выпавших осадков за 24 часа, мм.
S - Снежный покров - Высота снежного покрова, см. При наведении курсора мыши на число - состояние снежного покрова и степень покрытия местности в баллах.